Malaga, Spain

4:03 AM CEST on July 27, 2017 (GMT +0200)
Malaga

Weather History for LEMG - February, 2014

Change the Weather History Date:

Tuesday, February 18, 2014

  Actual Average Record
Temperature  
Mean Temperature 56 °F -  
Max Temperature 62 °F 63 °F 69 °F (1997)
Min Temperature 51 °F 47 °F 41 °F (2001)
Degree Days  
Heating Degree Days 8    
Growing Degree Days 6 (Base 50)    
Moisture  
Dew Point 44 °F    
Average Humidity 66    
Maximum Humidity 100    
Minimum Humidity 35    
Precipitation  
Precipitation 0.00 in 0.09 in - ()
Sea Level Pressure  
Sea Level Pressure 29.92 in    
Wind  
Wind Speed 12 mph ()    
Max Wind Speed 23 mph    
Max Gust Speed 28 mph    
Visibility 7.3 miles    
Events Rain    
Averages and records for this station are not official NWS values.
T = Trace of Precipitation, MM = Missing Value Source: Averaged Metar Reports

Daily Weather History Graph

Daily Weather History Graph

Search for Another Location

Airport or City:

Trip Planner

Search our weather history database for the weather conditions in past years. The results will help you decide how hot, cold, wet, or windy it might be!

Date:

Astronomy

Feb. 18, 2014 Rise Set
Actual Time 8:02 AM CET 7:01 PM CET
Civil Twilight 7:36 AM CET 7:27 PM CET
Nautical Twilight 7:06 AM CET 7:57 PM CET
Astronomical Twilight 6:36 AM CET 8:27 PM CET
Moon 10:33 PM CET (2/18) 9:33 AM CET (2/18)
Length of Visible Light 11h 51m
Length of Day
10h 58m
Waning Gibbous, 89% of the Moon is Illuminated
Feb 18
Waning Gibbous
Feb 22
Last Quarter
Mar 1
New
Mar 8
First Quarter
Mar 16
Full

Hourly Weather History & Observations

Time (CET) Temp. Dew Point Humidity Pressure Visibility Wind Dir Wind Speed Gust Speed Precip Events Conditions
12:00 AM 54 °F 51 °F 86% 29.89 in - West 6.9 mph - -  
12:00 AM 53.6 °F 51.8 °F 94% 29.89 in 6.2 mi WNW 5.8 mph - N/A   Mostly Cloudy
12:30 AM 53.6 °F 51.8 °F 94% 29.89 in 6.2 mi West 8.1 mph - N/A   Mostly Cloudy
1:00 AM 53 °F 51 °F 92% 29.89 in 7 mi WNW 4.6 mph - -   Overcast
1:00 AM 51.8 °F 51.8 °F 100% 29.86 in 6.2 mi WNW 4.6 mph - N/A   Mostly Cloudy
1:30 AM 51.8 °F 51.8 °F 100% 29.86 in 6.2 mi Variable 2.3 mph - N/A   Mostly Cloudy
2:00 AM 54 °F 51 °F 87% 29.87 in - West 5.8 mph - -  
2:00 AM 53.6 °F 51.8 °F 94% 29.86 in 6.2 mi West 5.8 mph - N/A   Mostly Cloudy
2:30 AM 51.8 °F 51.8 °F 100% 29.86 in 6.2 mi WNW 6.9 mph - N/A   Mostly Cloudy
3:00 AM 54 °F 51 °F 87% 29.86 in - West 10.4 mph - -  
3:00 AM 53.6 °F 51.8 °F 94% 29.86 in 6.2 mi West 10.4 mph - N/A   Mostly Cloudy
3:30 AM 53.6 °F 51.8 °F 94% 29.83 in 6.2 mi West 12.7 mph - N/A   Mostly Cloudy
4:00 AM 54 °F 49 °F 79% 29.86 in 7 mi West 15.0 mph - -   Overcast
4:00 AM 53.6 °F 50.0 °F 88% 29.83 in 6.2 mi West 15.0 mph - N/A   Mostly Cloudy
4:30 AM 53.6 °F 48.2 °F 82% 29.83 in 6.2 mi West 17.3 mph - N/A   Mostly Cloudy
5:00 AM 54 °F 47 °F 71% 29.85 in - West 18.4 mph - -  
5:00 AM 53.6 °F 48.2 °F 82% 29.83 in 6.2 mi West 18.4 mph - N/A   Mostly Cloudy
5:30 AM 53.6 °F 46.4 °F 77% 29.83 in 6.2 mi West 18.4 mph - N/A   Mostly Cloudy
6:00 AM 53 °F 44 °F 64% 29.86 in - West 19.6 mph - -  
6:00 AM 51.8 °F 44.6 °F 76% 29.83 in 6.2 mi West 19.6 mph - N/A   Scattered Clouds
6:30 AM 51.8 °F 44.6 °F 76% 29.86 in 6.2 mi West 18.4 mph - N/A   Scattered Clouds
7:00 AM 53 °F 43 °F 61% 29.86 in 9 mi West 18.4 mph - -   Scattered Clouds
7:00 AM 51.8 °F 44.6 °F 76% 29.86 in 6.2 mi West 18.4 mph - N/A   Scattered Clouds
7:30 AM 51.8 °F 44.6 °F 76% 29.86 in 6.2 mi West 17.3 mph - N/A   Scattered Clouds
8:00 AM 53 °F 44 °F 64% 29.87 in - West 18.4 mph - -  
8:00 AM 51.8 °F 44.6 °F 76% 29.86 in 6.2 mi West 18.4 mph - N/A   Partly Cloudy
8:30 AM 53.6 °F 44.6 °F 72% 29.86 in 6.2 mi West 13.8 mph - N/A   Partly Cloudy
9:00 AM 54 °F 42 °F 55% 29.88 in - West 17.3 mph - -  
9:00 AM 53.6 °F 42.8 °F 67% 29.86 in 6.2 mi West 15.0 mph - N/A Rain Light Rain
9:30 AM 53.6 °F 44.6 °F 72% 29.89 in 6.2 mi West 19.6 mph - N/A Rain Light Rain
10:00 AM 55 °F 42 °F 50% 29.90 in 16 mi West 23.0 mph - - Rain Light Drizzle
10:00 AM 53.6 °F 42.8 °F 67% 29.89 in 6.2 mi West 21.9 mph - N/A   Partly Cloudy
10:30 AM 53.6 °F 42.8 °F 67% 29.89 in 6.2 mi West 20.7 mph - N/A   Partly Cloudy
11:00 AM 56 °F 41 °F 46% 29.91 in - West 20.7 mph - -   Unknown Precipitation
11:00 AM 53.6 °F 41.0 °F 62% 29.89 in 6.2 mi West 19.6 mph - N/A   Partly Cloudy
11:30 AM 53.6 °F 42.8 °F 67% 29.92 in 6.2 mi West 20.7 mph - N/A   Partly Cloudy
12:00 PM 54 °F 41 °F 52% 29.93 in - West 20.7 mph - -  
12:00 PM 53.6 °F 42.8 °F 67% 29.92 in 6.2 mi West 19.6 mph - N/A   Partly Cloudy
12:30 PM 53.6 °F 42.8 °F 67% 29.92 in 6.2 mi West 19.6 mph - N/A   Partly Cloudy
1:00 PM 56 °F 43 °F 51% 29.93 in 19 mi West 17.3 mph - -   Scattered Clouds
1:00 PM 53.6 °F 42.8 °F 67% 29.92 in 6.2 mi West 17.3 mph - N/A   Partly Cloudy
1:30 PM 55.4 °F 42.8 °F 63% 29.92 in 6.2 mi WNW 16.1 mph - N/A   Partly Cloudy
2:00 PM 61 °F 43 °F 41% 29.93 in - WNW 19.6 mph - -  
2:00 PM 59.0 °F 44.6 °F 59% 29.92 in 6.2 mi WNW 18.4 mph - N/A   Partly Cloudy
2:30 PM 60.8 °F 42.8 °F 52% 29.92 in 6.2 mi WNW 18.4 mph - N/A   Partly Cloudy
3:00 PM 62 °F 41 °F 35% 29.93 in - NW 16.1 mph - -  
3:00 PM 60.8 °F 42.8 °F 52% 29.92 in 6.2 mi NW 16.1 mph - N/A   Partly Cloudy
3:30 PM 60.8 °F 41.0 °F 48% 29.92 in 6.2 mi NW 13.8 mph - N/A   Scattered Clouds
4:00 PM 61 °F 40 °F 35% 29.93 in 19 mi NW 13.8 mph - -   Partly Cloudy
4:00 PM 59.0 °F 41.0 °F 51% 29.92 in 6.2 mi NW 13.8 mph 27.6 mph N/A   Scattered Clouds
4:30 PM 60.8 °F 41.0 °F 48% 29.92 in 6.2 mi NW 16.1 mph - N/A   Scattered Clouds
5:00 PM 60 °F 40 °F 35% 29.94 in - NW 18.4 mph - -  
5:00 PM 59.0 °F 41.0 °F 51% 29.92 in 6.2 mi NW 17.3 mph - N/A   Scattered Clouds
5:30 PM 59.0 °F 39.2 °F 48% 29.92 in 6.2 mi NW 16.1 mph - N/A   Scattered Clouds
6:00 PM 60 °F 40 °F 35% 29.95 in - NW 16.1 mph - -  
6:00 PM 59.0 °F 41.0 °F 51% 29.95 in 6.2 mi NW 15.0 mph - N/A   Scattered Clouds
6:30 PM 57.2 °F 39.2 °F 51% 29.95 in 6.2 mi NW 13.8 mph 25.3 mph N/A   Scattered Clouds
7:00 PM 57 °F 40 °F 41% 29.99 in 16 mi WNW 12.7 mph - -   Partly Cloudy
7:00 PM 55.4 °F 39.2 °F 54% 29.98 in 6.2 mi WNW 12.7 mph - N/A   Scattered Clouds
7:30 PM 53.6 °F 42.8 °F 67% 29.98 in 6.2 mi WNW 13.8 mph - N/A   Scattered Clouds
8:00 PM 55 °F 41 °F 48% 30.00 in - WNW 13.8 mph - -  
8:00 PM 53.6 °F 41.0 °F 62% 29.98 in 6.2 mi WNW 12.7 mph - N/A   Scattered Clouds
8:30 PM 51.8 °F 41.0 °F 67% 30.01 in 6.2 mi WNW 10.4 mph - N/A   Scattered Clouds
9:00 PM 54 °F 40 °F 47% 30.02 in - West 15.0 mph - -  
9:00 PM 51.8 °F 41.0 °F 67% 30.01 in 6.2 mi WNW 13.8 mph - N/A   Scattered Clouds
9:30 PM 53.6 °F 39.2 °F 58% 30.01 in 6.2 mi West 16.1 mph - N/A   Scattered Clouds
10:00 PM 54 °F 40 °F 48% 30.04 in 16 mi West 16.1 mph - -   Scattered Clouds
10:00 PM 53.6 °F 41.0 °F 62% 30.04 in 6.2 mi West 16.1 mph - N/A   Partly Cloudy
10:30 PM 53.6 °F 41.0 °F 62% 30.04 in 6.2 mi West 17.3 mph - N/A   Partly Cloudy
11:00 PM 54 °F 40 °F 49% 30.06 in - West 17.3 mph - -  
11:00 PM 51.8 °F 41.0 °F 67% 30.04 in 6.2 mi West 17.3 mph - N/A   Partly Cloudy
11:30 PM 51.8 °F 41.0 °F 67% 30.04 in 6.2 mi West 16.1 mph - N/A   Partly Cloudy